TimeCST,TemperatureF,Dew PointF,Humidity,Sea Level PressureIn,VisibilityMPH,Wind Direction,Wind SpeedMPH,Gust SpeedMPH,PrecipitationIn,Events,Conditions,WindDirDegrees,DateUTC
3:00 AM,75,74,95,29.93,12,WNW,5.8,,,,Mostly Cloudy,300,2012-11-06 09:00:00
5:00 AM,75.2,73.4,94,29.92,6.2,West,4.6,-,N/A,,Mostly Cloudy,280,2012-11-06 11:00:00
6:00 AM,73,72,95,29.97,12,WNW,5.8,,,,Mostly Cloudy,300,2012-11-06 12:00:00
6:00 AM,73.4,71.6,94,29.95,6.2,WNW,5.8,-,N/A,,Scattered Clouds,300,2012-11-06 12:00:00
7:00 AM,73.4,71.6,94,29.98,6.2,NW,5.8,-,N/A,,Mostly Cloudy,310,2012-11-06 13:00:00
8:00 AM,73.4,71.6,94,30.01,6.2,NW,6.9,-,N/A,,Mostly Cloudy,320,2012-11-06 14:00:00
9:00 AM,78,72,78,30.03,12,North,8.1,,,,Mostly Cloudy,350,2012-11-06 15:00:00
9:00 AM,78.8,71.6,78,30.02,6.2,North,8.1,-,N/A,,Mostly Cloudy,350,2012-11-06 15:00:00
10:00 AM,80.6,73.4,79,30.02,6.2,Calm,Calm,-,N/A,,Scattered Clouds,0,2012-11-06 16:00:00
11:00 AM,84.2,73.4,70,29.99,6.2,ENE,6.9,-,N/A,,Scattered Clouds,60,2012-11-06 17:00:00
12:00 PM,83,73,64,29.99,12,ENE,9.2,,,,Mostly Cloudy,60,2012-11-06 18:00:00
12:00 PM,84.2,73.4,70,29.98,6.2,ENE,9.2,-,N/A,,Mostly Cloudy,60,2012-11-06 18:00:00
1:00 PM,82.4,73.4,74,29.95,6.2,NE,8.1,-,N/A,,Mostly Cloudy,50,2012-11-06 19:00:00
2:00 PM,84.2,73.4,70,29.94,6.2,ENE,9.2,-,N/A,,Mostly Cloudy,60,2012-11-06 20:00:00
3:00 PM,84.2,73.4,70,29.93,6.2,NE,8.1,-,N/A,,Scattered Clouds,50,2012-11-06 21:00:00
4:00 PM,84.2,71.6,66,29.93,6.2,ENE,8.1,-,N/A,,Mostly Cloudy,60,2012-11-06 22:00:00
5:00 PM,84.2,71.6,66,29.94,6.2,NNE,4.6,-,N/A,,Scattered Clouds,20,2012-11-06 23:00:00
6:00 PM,80,72,70,29.96,12,Calm,Calm,,,,Mostly Cloudy,,2012-11-07 00:00:00
6:00 PM,80.6,71.6,74,29.95,6.2,Calm,Calm,-,N/A,,Mostly Cloudy,0,2012-11-07 00:00:00
7:00 PM,75.2,73.4,94,29.98,6.2,Calm,Calm,-,N/A,,Partly Cloudy,0,2012-11-07 01:00:00
9:00 PM,74,72,91,30.02,12,Calm,Calm,,,,Scattered Clouds,,2012-11-07 03:00:00